Time,TemperatureF,DewpointF,PressureIn,WindDirection,WindDirectionDegrees,WindSpeedMPH,WindSpeedGustMPH,Humidity,HourlyPrecipIn,Conditions,Clouds,dailyrainin,SoftwareType,DateUTC
2013-01-31 00:03:00,47.0,45.0,29.58,WSW,255,4.0,13.0,94,0.00,,,1.84,,2013-01-31 05:03:00,
2013-01-31 00:11:00,47.0,45.0,29.58,WSW,255,4.0,13.0,94,0.00,,,1.84,,2013-01-31 05:11:00,
2013-01-31 00:22:00,47.0,45.0,29.58,WSW,239,2.0,10.0,93,0.00,,,1.84,,2013-01-31 05:22:00,
2013-01-31 00:32:00,47.0,45.0,29.58,WSW,239,2.0,10.0,93,0.00,,,1.84,,2013-01-31 05:32:00,
2013-01-31 00:42:00,47.0,45.0,29.58,WSW,239,2.0,10.0,93,0.00,,,1.84,,2013-01-31 05:42:00,
2013-01-31 00:52:00,47.0,45.0,29.58,WSW,239,2.0,10.0,93,0.00,,,1.84,,2013-01-31 05:52:00,
2013-01-31 09:03:00,39.0,29.0,29.93,West,261,4.0,8.0,68,0.00,,,1.84,,2013-01-31 14:03:00,
2013-01-31 09:11:00,39.0,29.0,29.93,West,261,4.0,8.0,68,0.00,,,1.84,,2013-01-31 14:11:00,
2013-01-31 09:22:00,40.0,31.0,29.93,WNW,296,1.0,4.0,70,0.00,,,1.84,,2013-01-31 14:22:00,
2013-01-31 09:32:00,41.0,31.0,29.93,West,263,1.0,6.0,68,0.00,,,1.84,,2013-01-31 14:32:00,
2013-01-31 09:42:00,41.0,31.0,29.93,West,263,1.0,6.0,68,0.00,,,1.84,,2013-01-31 14:42:00,
2013-01-31 09:52:00,42.0,31.0,29.94,West,280,2.0,6.0,65,0.00,,,1.84,,2013-01-31 14:52:00,
2013-01-31 10:03:00,43.0,30.0,29.94,WSW,246,2.0,5.0,60,0.00,,,1.84,,2013-01-31 15:03:00,
2013-01-31 10:12:00,43.0,30.0,29.94,WSW,246,2.0,5.0,60,0.00,,,1.84,,2013-01-31 15:12:00,
2013-01-31 10:23:00,43.0,30.0,29.95,West,263,2.0,7.0,59,0.00,,,1.84,,2013-01-31 15:23:00,
2013-01-31 10:32:00,43.0,29.0,29.95,West,279,2.0,7.0,58,0.00,,,1.84,,2013-01-31 15:32:00,
2013-01-31 10:42:00,43.0,29.0,29.95,West,279,2.0,7.0,58,0.00,,,1.84,,2013-01-31 15:42:00,
2013-01-31 10:52:00,43.0,29.0,29.95,West,279,2.0,7.0,58,0.00,,,1.84,,2013-01-31 15:52:00,
2013-01-31 11:03:00,45.0,29.0,29.96,West,279,3.0,7.0,53,0.00,,,1.84,,2013-01-31 16:03:00,
2013-01-31 11:13:00,45.0,29.0,29.96,West,279,3.0,7.0,53,0.00,,,1.84,,2013-01-31 16:13:00,
2013-01-31 11:22:00,45.0,29.0,29.96,WNW,286,5.0,9.0,53,0.00,,,1.84,,2013-01-31 16:22:00,
2013-01-31 11:33:00,46.0,28.0,29.96,SSW,212,5.0,11.0,50,0.00,,,1.84,,2013-01-31 16:33:00,
2013-01-31 11:42:00,46.0,28.0,29.96,SSW,212,5.0,11.0,50,0.00,,,1.84,,2013-01-31 16:42:00,
2013-01-31 11:52:00,46.0,29.0,29.96,SW,217,3.0,7.0,51,0.00,,,1.84,,2013-01-31 16:52:00,
2013-01-31 12:03:00,47.0,29.0,29.96,WSW,257,2.0,8.0,50,0.00,,,1.84,,2013-01-31 17:03:00,
2013-01-31 12:13:00,47.0,29.0,29.96,WSW,257,2.0,8.0,50,0.00,,,1.84,,2013-01-31 17:13:00,
2013-01-31 12:23:00,47.0,28.0,29.96,WSW,251,4.0,8.0,47,0.00,,,1.84,,2013-01-31 17:23:00,
2013-01-31 12:32:00,48.0,28.0,29.96,West,264,2.0,7.0,45,0.00,,,1.84,,2013-01-31 17:32:00,
2013-01-31 12:44:00,48.0,28.0,29.96,West,264,2.0,7.0,45,0.00,,,1.84,,2013-01-31 17:44:00,
2013-01-31 12:53:00,48.0,28.0,29.95,SSW,196,4.0,10.0,45,0.00,,,1.84,,2013-01-31 17:53:00,
2013-01-31 13:03:00,48.0,27.0,29.96,WSW,248,5.0,8.0,43,0.00,,,1.84,,2013-01-31 18:03:00,
2013-01-31 13:12:00,49.0,27.0,29.96,WSW,239,3.0,13.0,43,0.00,,,1.84,,2013-01-31 18:12:00,
2013-01-31 13:22:00,49.0,27.0,29.96,WSW,239,3.0,13.0,43,0.00,,,1.84,,2013-01-31 18:22:00,
2013-01-31 13:32:00,50.0,28.0,29.95,SW,232,3.0,7.0,43,0.00,,,1.84,,2013-01-31 18:32:00,
2013-01-31 13:43:00,50.0,28.0,29.95,SW,232,3.0,7.0,43,0.00,,,1.84,,2013-01-31 18:43:00,
2013-01-31 13:52:00,51.0,30.0,29.95,SW,226,4.0,9.0,44,0.00,,,1.84,,2013-01-31 18:52:00,
2013-01-31 14:02:00,50.0,27.0,29.95,WNW,288,4.0,10.0,40,0.00,,,1.84,,2013-01-31 19:02:00,
2013-01-31 14:12:00,50.0,27.0,29.95,WNW,288,4.0,10.0,40,0.00,,,1.84,,2013-01-31 19:12:00,
2013-01-31 14:22:00,51.0,26.0,29.96,West,271,5.0,15.0,37,0.00,,,1.84,,2013-01-31 19:22:00,
2013-01-31 14:33:00,51.0,29.0,29.95,WSW,257,3.0,13.0,42,0.00,,,1.84,,2013-01-31 19:33:00,
2013-01-31 14:42:00,51.0,29.0,29.95,WSW,257,3.0,13.0,42,0.00,,,1.84,,2013-01-31 19:42:00,
2013-01-31 14:52:00,51.0,25.0,29.96,NW,311,3.0,8.0,36,0.00,,,1.84,,2013-01-31 19:52:00,
2013-01-31 15:02:00,52.0,27.0,29.97,SW,232,2.0,8.0,37,0.00,,,1.84,,2013-01-31 20:02:00,
2013-01-31 15:12:00,52.0,27.0,29.97,SW,232,2.0,8.0,37,0.00,,,1.84,,2013-01-31 20:12:00,
2013-01-31 15:22:00,53.0,25.0,29.98,WNW,302,3.0,8.0,34,0.00,,,1.84,,2013-01-31 20:22:00,
2013-01-31 15:32:00,53.0,24.0,29.98,WNW,298,4.0,8.0,32,0.00,,,1.84,,2013-01-31 20:32:00,
2013-01-31 15:42:00,53.0,24.0,29.98,WNW,298,4.0,8.0,32,0.00,,,1.84,,2013-01-31 20:42:00,
2013-01-31 15:52:00,51.0,22.0,29.98,NNW,331,5.0,11.0,32,0.00,,,1.84,,2013-01-31 20:52:00,
2013-01-31 16:02:00,51.0,23.0,29.99,West,260,3.0,9.0,33,0.00,,,1.84,,2013-01-31 21:02:00,
2013-01-31 16:12:00,51.0,23.0,29.99,West,260,3.0,9.0,33,0.00,,,1.84,,2013-01-31 21:12:00,
2013-01-31 16:22:00,50.0,23.0,29.99,West,269,3.0,10.0,34,0.00,,,1.84,,2013-01-31 21:22:00,
2013-01-31 16:32:00,50.0,23.0,29.99,WNW,290,3.0,8.0,34,0.00,,,1.84,,2013-01-31 21:32:00,
2013-01-31 16:42:00,50.0,23.0,29.99,WNW,290,3.0,8.0,34,0.00,,,1.84,,2013-01-31 21:42:00,
2013-01-31 16:52:00,49.0,23.0,29.98,NNW,327,4.0,11.0,35,0.00,,,1.84,,2013-01-31 21:52:00,
2013-01-31 17:03:00,48.0,22.0,29.99,West,263,2.0,8.0,36,0.00,,,1.84,,2013-01-31 22:03:00,
2013-01-31 17:11:00,48.0,22.0,29.99,West,263,2.0,8.0,36,0.00,,,1.84,,2013-01-31 22:11:00,
2013-01-31 17:22:00,47.0,22.0,30.00,NW,309,3.0,7.0,37,0.00,,,1.79,,2013-01-31 22:22:00,
2013-01-31 17:33:00,46.0,22.0,30.00,West,280,1.0,8.0,38,0.00,,,1.79,,2013-01-31 22:33:00,
2013-01-31 17:42:00,46.0,22.0,30.00,West,280,1.0,8.0,38,0.00,,,1.79,,2013-01-31 22:42:00,
2013-01-31 17:52:00,46.0,23.0,30.01,WNW,298,1.0,5.0,40,0.00,,,1.79,,2013-01-31 22:52:00,
2013-01-31 18:03:00,45.0,23.0,30.00,WSW,250,2.0,5.0,41,0.00,,,1.79,,2013-01-31 23:03:00,
2013-01-31 18:12:00,45.0,23.0,30.00,WSW,250,2.0,5.0,41,0.00,,,1.79,,2013-01-31 23:12:00,
2013-01-31 18:22:00,44.0,22.0,30.01,WNW,289,0.0,3.0,42,0.00,,,0.28,,2013-01-31 23:22:00,
2013-01-31 18:32:00,44.0,23.0,30.01,WNW,289,1.0,3.0,43,0.00,,,0.28,,2013-01-31 23:32:00,
2013-01-31 18:42:00,44.0,23.0,30.01,WNW,289,1.0,3.0,43,0.00,,,0.28,,2013-01-31 23:42:00,
2013-01-31 18:52:00,43.0,23.0,30.03,WNW,289,1.0,2.0,45,0.00,,,0.28,,2013-01-31 23:52:00,
2013-01-31 19:02:00,43.0,25.0,30.03,WNW,284,1.0,3.0,48,0.00,,,0.28,,2013-02-01 00:02:00,
2013-01-31 19:11:00,43.0,25.0,30.03,WNW,284,1.0,3.0,48,0.00,,,0.28,,2013-02-01 00:11:00,
2013-01-31 19:22:00,42.0,25.0,30.03,SW,222,1.0,3.0,51,0.00,,,0.15,,2013-02-01 00:22:00,
2013-01-31 19:32:00,41.0,25.0,30.03,West,275,0.0,3.0,53,0.00,,,0.15,,2013-02-01 00:32:00,
2013-01-31 19:42:00,41.0,25.0,30.03,West,275,0.0,3.0,53,0.00,,,0.15,,2013-02-01 00:42:00,
2013-01-31 19:52:00,40.0,25.0,30.05,West,271,1.0,2.0,54,0.00,,,0.15,,2013-02-01 00:52:00,
2013-01-31 20:01:00,40.0,25.0,30.05,West,271,1.0,2.0,54,0.00,,,0.15,,2013-02-01 01:01:00,
2013-01-31 20:11:00,40.0,25.0,30.05,West,271,0.0,3.0,55,0.00,,,0.06,,2013-02-01 01:11:00,
2013-01-31 20:22:00,40.0,25.0,30.05,West,271,0.0,3.0,55,0.00,,,0.06,,2013-02-01 01:22:00,
2013-01-31 20:32:00,39.0,25.0,30.05,West,275,1.0,3.0,57,0.00,,,0.06,,2013-02-01 01:32:00,
2013-01-31 20:42:00,39.0,25.0,30.05,West,275,1.0,3.0,57,0.00,,,0.06,,2013-02-01 01:42:00,
2013-01-31 20:52:00,40.0,26.0,30.05,West,273,1.0,3.0,56,0.00,,,0.06,,2013-02-01 01:52:00,
2013-01-31 21:02:00,40.0,26.0,30.05,WSW,247,1.0,5.0,57,0.00,,,0.06,,2013-02-01 02:02:00,
2013-01-31 21:11:00,40.0,26.0,30.05,WSW,247,1.0,5.0,57,0.00,,,0.06,,2013-02-01 02:11:00,
2013-01-31 21:21:00,40.0,26.0,30.05,WSW,238,2.0,4.0,56,0.00,,,0.05,,2013-02-01 02:21:00,
2013-01-31 21:32:00,40.0,25.0,30.05,WSW,256,2.0,5.0,55,0.00,,,0.05,,2013-02-01 02:32:00,
2013-01-31 21:42:00,40.0,25.0,30.05,WSW,256,2.0,5.0,55,0.00,,,0.05,,2013-02-01 02:42:00,
2013-01-31 21:52:00,40.0,26.0,30.07,WSW,241,3.0,5.0,56,0.00,,,0.05,,2013-02-01 02:52:00,
2013-01-31 22:02:00,39.0,25.0,30.07,WSW,242,2.0,4.0,57,0.00,,,0.05,,2013-02-01 03:02:00,
2013-01-31 22:12:00,39.0,25.0,30.07,WSW,242,2.0,4.0,57,0.00,,,0.05,,2013-02-01 03:12:00,
2013-01-31 22:22:00,39.0,25.0,30.07,WSW,254,1.0,5.0,58,0.00,,,0.02,,2013-02-01 03:22:00,
2013-01-31 22:33:00,39.0,26.0,30.07,WSW,238,1.0,4.0,59,0.00,,,0.02,,2013-02-01 03:33:00,
2013-01-31 22:42:00,39.0,26.0,30.07,WSW,238,1.0,4.0,59,0.00,,,0.02,,2013-02-01 03:42:00,
2013-01-31 22:52:00,39.0,26.0,30.07,WSW,243,2.0,5.0,60,0.00,,,0.02,,2013-02-01 03:52:00,
2013-01-31 23:02:00,39.0,26.0,30.07,WNW,283,3.0,8.0,59,0.00,,,0.02,,2013-02-01 04:02:00,
2013-01-31 23:11:00,39.0,26.0,30.07,WNW,283,3.0,8.0,59,0.00,,,0.02,,2013-02-01 04:11:00,
2013-01-31 23:22:00,39.0,26.0,30.06,WSW,246,3.0,11.0,59,0.00,,,0.00,,2013-02-01 04:22:00,
2013-01-31 23:32:00,39.0,26.0,30.07,WSW,238,3.0,10.0,60,0.00,,,0.00,,2013-02-01 04:32:00,
2013-01-31 23:42:00,39.0,26.0,30.07,WSW,238,3.0,10.0,60,0.00,,,0.00,,2013-02-01 04:42:00,
2013-01-31 23:52:00,39.0,26.0,30.08,SW,235,3.0,10.0,60,0.00,,,0.00,,2013-02-01 04:52:00,